"Pseudo-MPEC" for VT9F61C

Created 2014 Oct 15 22:38:02 UT using Find_Orb

Astrometry:
     VT9F61C  C2014 10 14.30252 01 27 50.68 +14 20 17.7          21.2 VqNEOCPG96
     VT9F61C  C2014 10 14.31498 01 27 50.80 +14 20 34.3          20.7 VqNEOCPG96
     VT9F61C  C2014 10 14.32744 01 27 50.97 +14 20 49.4          21.2 VqNEOCPG96
     VT9F61C KC2014 10 14;9Astrometry79N,e!@cRo7l\DTNg(we^p^-EW[hhP[Yi0?Te_q=291
     VT9F61C KC2014 10 14.cdjasN!p:_@Rl?/Mredacted;.wXC0Gsee-OVMhMjwj.AR'n(dt291
     VT9F61C KC2014 10 14A+L3J\:23r0Dt=M*j15mwhTX]4:!/[`[Heqcw+5a)cY0m#%NEOCP291
     VT9F61C  C2014 10 14.43766 01 27 57.24 +14 22 16.8          21.1 VqNEOCPG96
     VT9F61C  C2014 10 14.44098 01 27 57.67 +14 22 17.6          21.2 VqNEOCPG96
     VT9F61C  C2014 10 14.44427 01 27 58.15 +14 22 19.1          21.3 VqNEOCPG96
     VT9F61C  C2014 10 14.44759 01 27 58.60 +14 22 20.4          21.5 VqNEOCPG96

Station data:
(291) LPL/Spacewatch II (N31.9617 W111.5991)  US/Arizona.
(G96) Mt. Lemmon Survey (N32.44287 W110.78872)  US/Arizona.   Observers E. J.
    Christensen, A. R. Gibbs, A. D. Grauer, R. E. Hill, J. A. Johnson, R. A.
    Kowalski, S. M. Larson, F. C. Shelly.  1.5-m reflector + CCD.

Orbital elements:  VT9F61C
   Perihelion 2014 Oct 7.630747 +/- 48.1 TT = 15:08:16 (JD 2456938.130747)
Epoch 2014 Oct 14.0 TT = JDT 2456944.5   Earth MOID: 0.0041   Find_Orb
M   5.81018 +/- 44
n   0.91222340 +/- 0.00795          Peri.   78.37127 +/- 110
a   1.05293584 +/- 0.00612          Node   295.68901 +/- 60
e   0.0439656 +/- 0.017             Incl.    0.04512 +/- 0.18
P   1.08/394.63d           H 30.8   G  0.15   U  9.537  
q 1.00664279 +/- 0.0235    Q 1.09922889 +/- 0.0114
From 10 observations 2014 Oct. 14 (3.5 hr); mean residual 0.380

Residuals in arcseconds:
141014 G96 .328+ .106+    141014 291 .133- .087+    141014 G96 .370+ .073-    
141014 G96 .263- .079+    141014 291 .206- .439+    141014 G96 .393+ .074-    
141014 G96 .391- .225-    141014 G96 .646- .384+    
141014 291 .952+ .493-    141014 G96 .403- .229-    

Ephemerides for (703) Catalina Sky Survey:
Date (UT)  HH   RA              Dec         delta   r     elong SM  mag alt  az " sig PA
---- -- -- --  ------------   ------------  ------ ------ ----- --  --- --- --- ---- ---
2014 10 14 12  01 28 08.189   +14 22 34.99  .00955 1.0069 173.2  M 21.2 +24 272  1.9 104
2014 10 14 13  01 28 19.667   +14 22 40.78  .00957 1.0069 173.2 NM 21.2 +12 280  4.9  99
................
2014 10 15 01  01 32 54.396   +14 32 47.43  .00976 1.0070 172.9 C  21.3 +03 075  226  98
2014 10 15 02  01 33 07.683   +14 34 29.29  .00977 1.0070 172.9 A  21.3 +16 082  251  99
2014 10 15 03  01 33 17.409   +14 36 08.77  .00978 1.0070 172.9    21.3 +28 090  274 100
2014 10 15 04  01 33 23.850   +14 37 42.57  .00978 1.0070 172.9    21.3 +41 099  294 101
2014 10 15 05  01 33 27.503   +14 39 07.76  .00979 1.0070 172.9    21.3 +53 110  313 102
2014 10 15 06  01 33 29.059   +14 40 21.97  .00980 1.0070 172.9    21.3 +64 128  330 102
2014 10 15 07  01 33 29.348   +14 41 23.57  .00982 1.0070 172.9  M 21.3 +72 163  345 103
2014 10 15 08  01 33 29.285   +14 42 11.80  .00983 1.0070 173.0  M 21.3 +70 208  360 104
2014 10 15 09  01 33 29.804   +14 42 46.80  .00985 1.0070 173.0  M 21.3 +62 237  375 104
2014 10 15 10  01 33 31.792   +14 43 09.65  .00987 1.0070 173.0  M 21.3 +50 253  391 104
2014 10 15 11  01 33 36.027   +14 43 22.23  .00989 1.0070 173.0  M 21.3 +38 264  410 104
2014 10 15 12  01 33 43.122   +14 43 27.11  .00992 1.0070 173.0  M 21.3 +25 272  432 104
2014 10 15 13  01 33 53.489   +14 43 27.36  .00994 1.0070 173.0 NM 21.3 +12 280  458 104
................
2014 10 16 01  01 38 11.362   +14 52 18.71  .01013 1.0071 172.8 C  21.4 +03 074 1057 101
2014 10 16 02  01 38 23.685   +14 53 53.89  .01014 1.0071 172.8 A  21.4 +15 082 1102 101
2014 10 16 03  01 38 32.569   +14 55 26.81  .01015 1.0071 172.8    21.4 +28 089 1143 102
2014 10 16 04  01 38 38.274   +14 56 54.23  .01015 1.0071 172.8    21.4 +41 098 1178 102
2014 10 16 05  01 38 41.279   +14 58 13.25  .01016 1.0071 172.8    21.4 +53 109 1209 102
2014 10 16 06  01 38 42.245   +14 59 21.51  .01017 1.0071 172.8    21.4 +64 127 1235 103
2014 10 16 07  01 38 41.970   +15 00 17.42  .01019 1.0071 172.8    21.4 +72 161 1259 103
2014 10 16 08  01 38 41.339   +15 01 00.19  .01020 1.0071 172.8  m 21.4 +71 208 1281 103
2014 10 16 09  01 38 41.252   +15 01 29.96  .01022 1.0071 172.9  m 21.4 +62 237 1304 104
2014 10 16 10  01 38 42.569   +15 01 47.77  .01024 1.0071 172.9  m 21.4 +50 254 1328 104
2014 10 16 11  01 38 46.042   +15 01 55.45  .01026 1.0071 172.9  m 21.4 +38 264 1356 104
2014 10 16 12  01 38 52.270   +15 01 55.54  .01029 1.0071 172.9  m 21.4 +25 272 1389 103
2014 10 16 13  01 39 01.654   +15 01 51.03  .01031 1.0071 172.9 Nm 21.4 +13 280 1428 103
................
2014 10 17 01  01 43 04.120   +15 09 36.21  .01050 1.0072 172.7 C  21.4 +03 074 2269 101
2014 10 17 02  01 43 15.546   +15 11 05.31  .01051 1.0072 172.7 A  21.4 +15 081 2328 102
2014 10 17 03  01 43 23.649   +15 12 32.25  .01052 1.0072 172.7    21.4 +28 089 2379 102
2014 10 17 04  01 43 28.677   +15 13 53.83  .01052 1.0072 172.7    21.4 +41 098 2423 102
2014 10 17 05  01 43 31.089   +15 15 07.21  .01053 1.0072 172.7    21.4 +53 109 2460 102
2014 10 17 06  01 43 31.522   +15 16 10.08  .01055 1.0072 172.7    21.4 +64 127 2491 103
2014 10 17 07  01 43 30.745   +15 17 00.83  .01056 1.0072 172.7    21.5 +72 161 2518 103
2014 10 17 08  01 43 29.613   +15 17 38.70  .01057 1.0072 172.8  m 21.5 +71 208 2543 103
2014 10 17 09  01 43 28.996   +15 18 03.82  .01059 1.0072 172.8  m 21.5 +62 238 2568 103
2014 10 17 10  01 43 29.725   +15 18 17.19  .01061 1.0072 172.8  m 21.5 +51 254 2596 103
2014 10 17 11  01 43 32.531   +15 18 20.61  .01063 1.0072 172.9  m 21.5 +38 264 2628 103
2014 10 17 12  01 43 37.995   +15 18 16.54  .01066 1.0072 172.9  m 21.5 +26 272 2667 103
2014 10 17 13  01 43 46.507   +15 18 07.94  .01068 1.0072 172.9 Nm 21.5 +13 280 2713 103
................